Location: Three Oaks Observatory
(31.1535°N, 83.5955°W)
Time: 16:39:37
(UTC-05:00)

NO-84 - Pass Details

Date: 22 October 2019
Orbit: 330 x 505 km, 55.0° (Epoch: 13 November)

Event Time Altitude Azimuth Distance (km) Brightness Sun altitude
Exits shadow 07:02:02 - 319° (NW) 2,087 ? -9.3°
Reaches altitude 10° 07:02:58 10° 319° (NW) 1,715 ? -9.1°
Maximum altitude 07:06:52 87° 232° (SW) 500 ? -8.2°
Drops below altitude 10° 07:10:37 10° 142° (SE) 1,652 ? -7.4°
Sets 07:12:43 0° 142° (SE) 2,502 ? -7.0°
